Terug naar catalogus

FENGYUN 1C DEB

ActiefSSO
NORAD 29992·DEBRIS·🇨🇳 China

Gelanceerd May 10, 1999 vanaf Taiyuan Satellite Launch Center

Loading…

Volgende Passages (komende 24 uur)

TLE

VersSource: Space-Track

Epoch: Sep 14, 2026, 17:27 UTC

1 29992U 99025LS  26257.72742978  .00000099  00000-0  74755-4 0  9994
2 29992  98.7470 250.7377 0089699 104.3788  69.7396 14.11705139 12815

Volg FENGYUN 1C DEB in realtime met AllMySat

Download on the App Store